EW6780 Weather Reports


time (UTC)temp
C
wind
direction
speed
KPH
gust
KPH
rain 1hr
cm
rain 24hr
cm
rain mn
cm
humidity
%
barometer
mb
20260510190506 23 299 4.8 11.3 0.00 0.18 0.00 55 1012.4
20260510190005 23 241 1.6 17.7 0.00 0.18 0.00 56 1012.4
20260510185513 23 285 0.0 9.7 0.00 0.18 0.00 58 1012.4
20260510185011 22 314 0.0 11.3 0.00 0.18 0.00 58 1012.5
20260510184508 23 12 0.0 6.4 0.00 0.18 0.00 57 1012.4
20260510184005 23 291 1.6 8.0 0.00 0.18 0.00 56 1012.4
20260510183513 23 299 4.8 8.0 0.00 0.18 0.00 57 1012.4
20260510183005 22 285 0.0 11.3 0.00 0.18 0.00 59 1012.5
20260510182509 22 297 0.0 8.0 0.00 0.18 0.00 59 1012.5
20260510182008 23 308 0.0 11.3 0.00 0.20 0.00 58 1012.5
20260510181508 23 305 6.4 14.5 0.00 0.20 0.00 59 1012.5
20260510181011 23 273 0.0 6.4 0.00 0.20 0.00 59 1012.6
20260510180506 23 299 4.8 8.0 0.00 0.20 0.00 59 1012.6
20260510180006 23 211 0.0 6.4 0.00 0.20 0.00 59 1012.5
20260510175505 23 215 1.6 6.4 0.00 0.20 0.00 61 1012.5
20260510175014 23 280 0.0 6.4 0.00 0.20 0.00 61 1012.5
20260510174505 23 288 3.2 3.2 0.00 0.20 0.00 61 1012.4
20260510174005 23 23 0.0 3.2 0.00 0.20 0.00 63 1012.4
20260510173508 22 138 0.0 3.2 0.00 0.20 0.00 63 1012.4
20260510173011 22 300 0.0 8.0 0.00 0.20 0.00 63 1012.4
20260510172506 22 106 0.0 4.8 0.00 0.20 0.00 64 1012.4
20260510172008 22 130 3.2 3.2 0.00 0.20 0.00 64 1012.4
20260510171506 22 292 0.0 3.2 0.00 0.20 0.00 66 1012.6
20260510171006 22 127 0.0 6.4 0.00 0.20 0.00 67 1012.6
20260510170506 21 240 0.0 6.4 0.00 0.20 0.00 68 1012.6
20260510170005 21 91 0.0 4.8 0.00 0.20 0.00 69 1012.7
20260510165505 21 315 0.0 6.4 0.00 0.20 0.00 68 1012.8
20260510165006 21 328 4.8 4.8 0.00 0.20 0.00 69 1012.8
20260510164505 21 210 1.6 8.0 0.00 0.20 0.00 70 1012.9
20260510164005 20 114 0.0 0.0 0.00 0.20 0.00 74 1012.9
20260510163505 20 197 0.0 1.6 0.00 0.20 0.00 74 1013.1
20260510163008 19 131 0.0 4.8 0.00 0.20 0.00 75 1013.0
20260510162505 19 85 1.6 4.8 0.00 0.20 0.00 77 1013.0
20260510162005 18 128 3.2 8.0 0.00 0.20 0.00 78 1013.2
20260510161505 18 299 0.0 1.6 0.00 0.20 0.00 79 1013.2
20260510161005 18 256 0.0 4.8 0.00 0.20 0.00 80 1013.1
20260510160505 17 136 3.2 8.0 0.00 0.20 0.00 82 1013.2
20260510160005 17 121 3.2 6.4 0.00 0.20 0.00 85 1013.1
20260510155508 17 69 0.0 0.0 0.00 0.20 0.00 84 1013.3
20260510155005 16 66 0.0 4.8 0.00 0.20 0.00 85 1013.2
20260510154505 16 37 0.0 6.4 0.00 0.20 0.00 85 1013.4
20260510154005 16 110 1.6 8.0 0.00 0.20 0.00 87 1013.5
20260510153512 16 127 0.0 4.8 0.00 0.20 0.00 87 1013.5
20260510153009 16 126 4.8 8.0 0.00 0.20 0.00 87 1013.5
20260510152506 16 135 0.0 9.7 0.00 0.20 0.00 88 1013.3
20260510152008 16 131 1.6 6.4 0.00 0.20 0.00 90 1013.3
20260510151508 15 62 0.0 8.0 0.00 0.20 0.00 89 1013.3
20260510151008 15 84 0.0 3.2 0.00 0.20 0.00 90 1013.3
20260510150511 15 60 0.0 0.0 0.00 0.20 0.00 91 1013.4
20260510150008 15 53 0.0 1.6 0.00 0.20 0.00 92 1013.5
20260510145510 15 73 0.0 1.6 0.00 0.20 0.00 92 1013.5
20260510145005 14 73 0.0 1.6 0.00 0.20 0.00 92 1013.5
20260510144507 14 71 0.0 0.0 0.00 0.20 0.00 92 1013.4
20260510144005 14 71 0.0 3.2 0.00 0.20 0.00 93 1013.4
20260510143510 13 132 0.0 3.2 0.00 0.20 0.00 93 1013.3
20260510143008 13 140 0.0 8.0 0.00 0.20 0.00 92 1013.3
20260510142511 14 94 0.0 6.4 0.00 0.20 0.00 93 1013.3
20260510142005 13 142 0.0 3.2 0.00 0.20 0.00 94 1013.3
20260510141506 13 146 0.0 0.0 0.00 0.20 0.00 94 1013.3
20260510141009 13 289 0.0 6.4 0.00 0.20 0.00 94 1013.2
20260510140506 13 133 4.8 6.4 0.00 0.20 0.00 94 1013.2
20260510140007 13 129 0.0 6.4 0.00 0.20 0.00 95 1013.2
20260510135506 13 129 0.0 6.4 0.00 0.20 0.00 95 1013.2
20260510135008 13 129 0.0 0.0 0.00 0.20 0.00 95 1013.2
20260510134506 13 129 0.0 0.0 0.00 0.20 0.00 96 1013.2
20260510134008 13 129 0.0 0.0 0.00 0.20 0.00 96 1013.3
20260510133505 13 129 0.0 0.0 0.00 0.20 0.00 96 1013.3
20260510133005 13 129 0.0 0.0 0.00 0.20 0.00 96 1013.2
20260510132511 13 129 0.0 0.0 0.00 0.20 0.00 96 1013.2
20260510132005 13 129 0.0 0.0 0.00 0.20 0.00 97 1013.1
20260510131505 12 129 0.0 0.0 0.00 0.20 0.00 97 1013.1
20260510131008 12 129 0.0 0.0 0.00 0.20 0.00 97 1013.0
20260510130505 12 129 0.0 0.0 0.00 0.20 0.00 97 1012.8
20260510130007 12 129 0.0 3.2 0.00 0.20 0.00 97 1012.8
20260510125505 12 129 3.2 4.8 0.00 0.20 0.00 97 1012.9
20260510125007 12 129 0.0 0.0 0.00 0.20 0.00 97 1012.7
20260510124505 12 129 0.0 0.0 0.00 0.20 0.00 97 1012.7
20260510124006 12 129 0.0 0.0 0.00 0.20 0.00 97 1012.6
20260510123505 12 129 0.0 4.8 0.00 0.20 0.00 97 1012.6
20260510123013 12 351 0.0 0.0 0.00 0.20 0.00 97 1012.6
20260510122510 12 349 0.0 1.6 0.00 0.20 0.00 97 1012.5
20260510122012 12 347 0.0 0.0 0.00 0.20 0.00 97 1012.4
20260510121511 12 347 0.0 0.0 0.00 0.20 0.00 97 1012.5
20260510121007 12 344 0.0 0.0 0.00 0.20 0.00 97 1012.4
20260510120508 12 344 0.0 0.0 0.00 0.20 0.00 97 1012.5
20260510120008 12 344 0.0 0.0 0.00 0.20 0.00 97 1012.4
20260510115505 12 344 0.0 0.0 0.00 0.20 0.00 97 1012.3
20260510115005 12 344 0.0 0.0 0.00 0.20 0.00 97 1012.2
20260510114506 12 344 0.0 0.0 0.00 0.20 0.00 97 1012.2
20260510114005 12 344 0.0 0.0 0.00 0.20 0.00 97 1012.3
20260510113512 12 344 0.0 0.0 0.00 0.20 0.00 97 1012.4
20260510113005 12 344 0.0 0.0 0.00 0.20 0.00 97 1012.3
20260510112508 12 344 0.0 0.0 0.00 0.20 0.00 97 1012.2
20260510112005 12 344 0.0 0.0 0.00 0.20 0.00 97 1012.0
20260510111508 11 344 0.0 0.0 0.00 0.20 0.00 97 1011.8
20260510111012 11 344 0.0 0.0 0.00 0.20 0.00 97 1011.7
20260510110508 11 344 0.0 0.0 0.00 0.20 0.00 97 1011.5
20260510110008 11 344 0.0 0.0 0.00 0.20 0.00 97 1011.6
20260510105505 11 344 0.0 0.0 0.00 0.20 0.00 97 1011.6
20260510105005 11 344 0.0 0.0 0.00 0.20 0.00 97 1011.6
20260510104514 11 344 0.0 0.0 0.00 0.20 0.00 97 1011.6
20260510104005 11 344 0.0 0.0 0.00 0.20 0.00 97 1011.6
20260510103505 11 344 0.0 0.0 0.00 0.20 0.00 97 1011.7
20260510103011 11 344 0.0 0.0 0.00 0.20 0.00 97 1011.7
20260510102505 11 344 0.0 0.0 0.00 0.20 0.00 97 1011.8
20260510102007 11 344 0.0 0.0 0.00 0.20 0.00 97 1011.9
20260510101509 11 344 0.0 0.0 0.00 0.20 0.00 97 1011.7
20260510101011 11 344 0.0 0.0 0.00 0.20 0.00 97 1011.6
20260510100514 11 344 0.0 0.0 0.00 0.20 0.00 97 1011.6
20260510100009 11 344 0.0 0.0 0.00 0.20 0.00 97 1011.6
20260510095511 11 344 0.0 0.0 0.00 0.20 0.00 97 1011.8
20260510095005 11 344 0.0 0.0 0.00 0.20 0.00 97 1011.8
20260510094508 11 344 0.0 0.0 0.00 0.20 0.00 97 1011.8
20260510094011 11 344 0.0 1.6 0.00 0.20 0.00 97 1011.8
20260510093514 11 345 0.0 3.2 0.00 0.20 0.00 97 1011.9
20260510093013 11 345 0.0 0.0 0.00 0.20 0.00 97 1012.0
20260510092506 11 343 0.0 0.0 0.00 0.20 0.00 97 1012.1
20260510092005 11 338 0.0 0.0 0.00 0.20 0.00 97 1012.2
20260510091511 11 340 0.0 0.0 0.00 0.20 0.00 97 1012.2
20260510091005 11 323 0.0 4.8 0.00 0.20 0.00 97 1012.2
20260510090505 11 347 0.0 4.8 0.00 0.20 0.00 97 1012.1
20260510090005 11 359 0.0 1.6 0.00 0.20 0.00 97 1012.2
20260510085508 11 23 0.0 0.0 0.00 0.20 0.00 97 1012.0
20260510085008 11 25 0.0 3.2 0.00 0.20 0.00 97 1012.0
20260510084505 11 26 0.0 0.0 0.00 0.20 0.00 97 1012.1
20260510084008 11 29 0.0 4.8 0.00 0.20 0.00 97 1011.9
20260510083505 11 349 0.0 0.0 0.00 0.20 0.00 97 1011.9
20260510083010 11 349 0.0 0.0 0.00 0.20 0.00 97 1011.5
20260510082505 11 349 0.0 0.0 0.00 0.20 0.00 97 1011.5
20260510082011 11 349 0.0 0.0 0.00 0.20 0.00 97 1011.4
20260510081510 11 349 0.0 0.0 0.00 0.20 0.00 97 1011.4
20260510081007 11 349 0.0 0.0 0.00 0.20 0.00 97 1011.3
20260510080505 11 349 0.0 0.0 0.00 0.20 0.00 97 1011.2
20260510080006 11 349 0.0 0.0 0.00 0.20 0.00 97 1011.2
20260510075505 11 349 0.0 0.0 0.00 0.20 0.00 97 1011.2
20260510075008 11 349 0.0 0.0 0.00 0.20 0.00 97 1011.1
20260510074506 11 349 0.0 0.0 0.00 0.20 0.00 97 1011.1
20260510074011 11 349 0.0 0.0 0.00 0.20 0.00 97 1011.1
20260510073505 11 349 0.0 0.0 0.00 0.20 0.00 97 1011.1
20260510073007 11 349 0.0 0.0 0.00 0.20 0.00 97 1011.0
20260510072508 11 349 0.0 0.0 0.00 0.20 0.00 97 1011.1
20260510072005 11 349 0.0 0.0 0.00 0.20 0.00 97 1011.1
20260510071505 11 349 0.0 0.0 0.00 0.20 0.00 97 1011.1
20260510071005 11 349 0.0 0.0 0.00 0.20 0.00 97 1011.1
20260510070508 11 349 0.0 3.2 0.00 0.20 0.00 96 1011.1
20260510070008 11 349 0.0 4.8 0.00 0.20 0.00 96 1011.1
20260510065506 11 25 0.0 0.0 0.00 0.20 0.00 96 1011.1
20260510065005 11 25 0.0 1.6 0.00 0.20 0.00 96 1011.1
20260510064509 11 25 0.0 1.6 0.00 0.20 0.00 96 1011.1
20260510064005 11 25 0.0 0.0 0.00 0.20 0.00 96 1011.0
20260510063508 11 25 0.0 0.0 0.00 0.20 0.00 96 1010.9
20260510063005 11 25 0.0 0.0 0.00 0.20 0.00 96 1010.9
20260510062510 11 25 0.0 0.0 0.00 0.20 0.00 96 1010.8
20260510062005 11 25 0.0 0.0 0.00 0.20 0.00 96 1010.8
20260510061508 11 25 0.0 0.0 0.00 0.20 0.00 96 1010.8
20260510061008 11 25 0.0 0.0 0.00 0.20 0.00 96 1010.8
20260510060505 11 25 0.0 0.0 0.00 0.20 0.00 96 1010.9
20260510060008 11 25 0.0 0.0 0.00 0.20 0.00 96 1010.9
20260510055505 11 25 0.0 0.0 0.00 0.20 0.00 96 1010.9
20260510055011 11 25 0.0 0.0 0.00 0.20 0.00 96 1010.9
20260510054512 11 25 0.0 0.0 0.00 0.20 0.00 96 1011.0
20260510054006 10 25 0.0 0.0 0.00 0.20 0.00 96 1011.0
20260510053514 10 25 0.0 0.0 0.00 0.20 0.00 96 1011.0
20260510053008 10 25 0.0 0.0 0.00 0.20 0.00 96 1011.0
20260510052505 10 25 0.0 0.0 0.00 0.20 0.00 96 1010.9
20260510052011 10 25 0.0 0.0 0.00 0.20 0.00 96 1011.0
20260510051511 10 25 0.0 0.0 0.00 0.20 0.00 96 1011.0
20260510051005 10 25 0.0 0.0 0.00 0.20 0.00 96 1011.0
20260510050508 10 25 0.0 0.0 0.00 0.20 0.00 96 1011.1
20260510050011 10 25 0.0 0.0 0.00 0.20 0.00 96 1011.2
20260510045508 10 25 0.0 0.0 0.00 0.20 0.00 96 1011.3
20260510045005 10 25 0.0 0.0 0.00 0.20 0.00 96 1011.3
20260510044505 10 25 0.0 0.0 0.00 0.20 0.00 95 1011.2
20260510044005 10 25 0.0 0.0 0.00 0.20 0.00 95 1011.2
20260510043505 10 25 0.0 0.0 0.00 0.20 0.00 95 1011.2
20260510043008 10 25 0.0 0.0 0.00 0.20 0.00 95 1011.3
20260510042505 10 25 0.0 0.0 0.00 0.20 0.00 95 1011.3
20260510042011 10 25 0.0 0.0 0.00 0.20 0.00 95 1011.2
20260510041514 10 25 0.0 0.0 0.00 0.20 0.00 95 1011.2
20260510041010 10 25 0.0 0.0 0.00 0.20 0.00 95 1011.1
20260510040505 10 25 0.0 0.0 0.00 0.20 0.00 95 1011.1
20260510040005 10 25 0.0 0.0 0.00 0.20 0.00 95 1011.0
20260510035505 10 25 0.0 0.0 0.00 0.20 0.00 95 1011.0
20260510035007 10 25 0.0 0.0 0.00 0.20 0.00 95 1010.9
20260510034509 10 25 0.0 0.0 0.00 0.20 0.00 95 1010.9
20260510034011 10 25 0.0 0.0 0.00 0.20 0.00 95 1010.8
20260510033505 10 25 0.0 0.0 0.00 0.20 0.00 95 1010.8
20260510033008 10 25 0.0 0.0 0.00 0.20 0.00 95 1010.8
20260510032514 10 25 0.0 0.0 0.00 0.20 0.00 95 1010.9
20260510032005 10 25 0.0 0.0 0.00 0.20 0.00 95 1010.9
20260510031505 10 25 0.0 0.0 0.00 0.20 0.00 95 1010.9
20260510031005 10 25 0.0 0.0 0.00 0.20 0.00 95 1010.9
20260510030513 10 25 0.0 0.0 0.00 0.20 0.00 95 1010.7
20260510030006 10 25 0.0 0.0 0.00 0.20 0.00 95 1010.8
20260510025505 11 25 0.0 0.0 0.00 0.20 0.00 95 1010.8
20260510025008 11 25 0.0 0.0 0.00 0.20 0.00 94 1010.9
20260510024511 11 25 0.0 0.0 0.00 0.20 0.00 94 1010.9
20260510024007 11 25 0.0 0.0 0.00 0.20 0.00 95 1010.9
20260510023511 11 25 0.0 0.0 0.00 0.20 0.00 95 1010.9
20260510023007 11 25 0.0 0.0 0.00 0.20 0.00 94 1010.9
20260510022505 11 25 0.0 0.0 0.00 0.20 0.00 94 1010.9
20260510022008 11 25 0.0 0.0 0.00 0.20 0.00 94 1010.9
20260510021507 11 25 0.0 0.0 0.00 0.20 0.00 94 1010.8
20260510021005 11 25 0.0 0.0 0.00 0.20 0.00 94 1010.8
20260510020508 11 25 0.0 0.0 0.00 0.20 0.00 94 1010.8
20260510020005 11 25 0.0 0.0 0.00 0.20 0.00 94 1010.8
20260510015505 11 25 0.0 0.0 0.00 0.20 0.00 94 1010.8
20260510015011 11 25 0.0 0.0 0.00 0.20 0.00 94 1010.8
20260510014508 11 25 0.0 0.0 0.00 0.20 0.00 94 1010.8
20260510014014 11 25 0.0 0.0 0.00 0.20 0.00 94 1010.7
20260510013505 11 25 0.0 0.0 0.00 0.20 0.00 94 1010.7
20260510013011 11 25 0.0 0.0 0.00 0.20 0.00 94 1010.7
20260510012511 11 25 0.0 0.0 0.00 0.20 0.00 93 1010.7
20260510012006 11 25 0.0 0.0 0.00 0.20 0.00 93 1010.7
20260510011508 12 25 0.0 0.0 0.00 0.20 0.00 93 1010.7
20260510011006 12 25 0.0 0.0 0.00 0.20 0.00 93 1010.6
20260510010505 12 25 0.0 0.0 0.00 0.20 0.00 93 1010.5
20260510010010 12 25 0.0 0.0 0.00 0.20 0.00 93 1010.4
20260510005508 12 25 0.0 0.0 0.00 0.20 0.00 92 1010.3
20260510005008 12 25 0.0 0.0 0.00 0.20 0.00 92 1010.3
20260510004508 12 25 0.0 0.0 0.00 0.20 0.00 93 1010.3
20260510004005 12 25 0.0 0.0 0.00 0.20 0.00 92 1010.3
20260510003508 12 25 0.0 0.0 0.00 0.20 0.00 92 1010.2
20260510003005 12 25 0.0 0.0 0.00 0.20 0.00 92 1010.3
20260510002505 12 25 0.0 0.0 0.00 0.20 0.00 92 1010.2
20260510002005 12 25 0.0 0.0 0.00 0.20 0.00 92 1010.2
20260510001511 12 25 0.0 0.0 0.00 0.20 0.00 92 1010.2
20260510001005 13 25 0.0 0.0 0.00 0.20 0.00 91 1010.2
20260510000511 13 25 0.0 0.0 0.00 0.20 0.00 91 1010.1
20260510000006 13 25 0.0 0.0 0.00 0.20 0.00 91 1010.1
20260509235505 13 25 0.0 0.0 0.00 0.20 0.00 91 1010.1
20260509235009 13 25 0.0 0.0 0.00 0.20 0.00 91 1010.0
20260509234507 13 25 0.0 0.0 0.00 0.20 0.00 91 1010.0
20260509234005 13 25 0.0 0.0 0.00 0.20 0.00 90 1010.0
20260509233508 13 25 0.0 0.0 0.00 0.20 0.00 90 1010.0
20260509233005 13 25 0.0 0.0 0.00 0.20 0.00 90 1009.9
20260509232507 13 25 0.0 0.0 0.00 0.20 0.00 91 1010.0
20260509232007 13 25 0.0 0.0 0.00 0.20 0.00 91 1009.9
20260509231508 13 23 0.0 0.0 0.03 0.20 0.00 92 1010.1
20260509231005 13 23 0.0 0.0 0.05 0.20 0.00 91 1010.1
20260509230505 13 23 0.0 0.0 0.08 0.20 0.00 91 1010.1
20260509230010 13 23 0.0 0.0 0.10 0.20 0.00 91 1010.1
20260509225506 13 23 0.0 0.0 0.10 0.20 0.00 91 1010.2
20260509225006 13 23 0.0 0.0 0.10 0.20 0.00 91 1010.2
20260509224510 13 23 0.0 0.0 0.13 0.20 0.00 91 1010.3
20260509224007 13 23 0.0 0.0 0.15 0.20 0.00 91 1010.2
20260509223505 13 23 0.0 0.0 0.18 0.20 0.00 90 1010.3
20260509223005 13 23 0.0 0.0 0.18 0.20 0.00 90 1010.5
20260509222505 13 23 0.0 0.0 0.18 0.20 0.00 90 1010.6
20260509222005 13 23 0.0 0.0 0.18 0.20 0.00 90 1010.7
20260509221508 13 23 0.0 0.0 0.15 0.18 0.00 89 1010.6
20260509221008 13 23 0.0 0.0 0.13 0.15 0.00 88 1010.9
20260509220508 13 23 0.0 0.0 0.10 0.13 0.00 88 1010.9
20260509220008 13 23 0.0 0.0 0.10 0.10 0.00 87 1011.0
20260509215505 13 23 0.0 0.0 0.10 0.10 0.00 86 1010.7
20260509215005 13 23 0.0 0.0 0.08 0.10 0.00 85 1010.7
20260509214511 14 23 0.0 0.0 0.05 0.08 0.00 84 1010.7
20260509214005 14 23 0.0 0.0 0.03 0.05 0.00 83 1011.1
20260509213505 14 23 0.0 0.0 0.00 0.03 0.00 82 1011.0
20260509213006 14 23 0.0 0.0 0.00 0.03 0.00 82 1010.6
20260509212511 14 23 0.0 3.2 0.00 0.03 0.00 82 1010.4
20260509212011 14 347 0.0 0.0 0.00 0.03 0.00 81 1010.3
20260509211508 14 348 0.0 0.0 0.00 0.03 0.00 81 1010.6
20260509211009 14 347 0.0 0.0 0.00 0.03 0.00 80 1010.9
20260509210508 14 347 0.0 0.0 0.00 0.03 0.00 80 1010.7
20260509210005 14 347 0.0 0.0 0.00 0.03 0.00 80 1010.5
20260509205511 14 347 0.0 0.0 0.00 0.03 0.00 81 1010.4
20260509205005 14 347 0.0 0.0 0.00 0.03 0.00 81 1010.3
20260509204505 14 347 0.0 0.0 0.00 0.03 0.00 81 1010.5
20260509204007 14 315 0.0 0.0 0.00 0.03 0.00 81 1010.7
20260509203505 14 315 0.0 0.0 0.00 0.03 0.00 81 1010.7
20260509203008 14 315 0.0 0.0 0.00 0.03 0.00 80 1010.9
20260509202511 14 315 0.0 0.0 0.00 0.03 0.00 81 1010.9
20260509202005 14 317 0.0 1.6 0.00 0.03 0.00 81 1011.1
20260509201505 14 276 0.0 0.0 0.00 0.03 0.00 80 1011.0
20260509201005 15 281 0.0 0.0 0.00 0.03 0.00 80 1011.0
20260509200511 15 292 0.0 0.0 0.00 0.03 0.00 81 1011.0
20260509200007 15 292 0.0 3.2 0.00 0.03 0.00 80 1011.0
20260509195511 15 323 0.0 6.4 0.00 0.03 0.00 80 1011.0
20260509195014 15 24 0.0 6.4 0.00 0.03 0.00 79 1011.0
20260509194508 15 309 4.8 6.4 0.00 0.03 0.00 80 1010.8
20260509194005 15 308 0.0 3.2 0.00 0.03 0.00 80 1010.8
20260509193505 15 323 0.0 3.2 0.00 0.03 0.00 81 1010.7
20260509193005 15 323 0.0 3.2 0.00 0.03 0.00 81 1010.7
20260509192506 15 314 0.0 9.7 0.00 0.03 0.00 81 1010.7
20260509192005 15 316 0.0 4.8 0.03 0.03 0.00 83 1010.6
20260509191505 15 313 0.0 3.2 0.03 0.03 0.00 84 1010.6
20260509191005 15 316 0.0 3.2 0.03 0.03 0.00 85 1010.3